^^
Saratoga-Weather Station Historical Data
 
Daily Summary for March 01, 2024 Units:  Metric    English   Both
Daily Weekly Monthly Yearly
  Current: High: Low: Average:
Temperature: 11 °C 11.6 °C 10.6 °C 11 °C
Dew Point: 10.6 °C 10.8 °C 10 °C 10.4 °C
Humidity: 97% 97% 95% 96%
Wind Speed: 6.5km/h 14km/h 2.8km/h 6.2km/h
Wind Gust: 9.7km/h 16.1km/h - -
WindNE - - ESE
Pressure: 1000.2 hPa 1003.8 hPa 1000.2 hPa -
Precipitation: 0.2 mm      
 
 
Tabular Data for March 01, 2024
Time Temperature Dew Point Pressure Wind Wind Speed Wind Gust Humidity Rainfall Rate (Hourly) solar
00:04 11.6 °C 10.8 °C 1003.8 hPa NW 5.3 km/h 4.8 km/h 95% 0.0 mm 0 W/m2
00:09 11.6 °C 10.8 °C 1003.7 hPa NW 5.1 km/h 6.4 km/h 95% 0.0 mm 0 W/m2
00:14 11.6 °C 10.8 °C 1003.6 hPa NW 5.2 km/h 4.8 km/h 95% 0.0 mm 0 W/m2
00:19 11.6 °C 10.8 °C 1003.4 hPa NW 3.6 km/h 4.8 km/h 95% 0.0 mm 0 W/m2
00:24 11.5 °C 10.7 °C 1003.4 hPa NNW 3.9 km/h 3.2 km/h 95% 0.0 mm 0 W/m2
00:29 11.5 °C 10.7 °C 1003.4 hPa NNW 3.3 km/h 4.8 km/h 95% 0.0 mm 0 W/m2
00:34 11.5 °C 10.7 °C 1003.3 hPa NNW 4.3 km/h 3.2 km/h 95% 0.0 mm 0 W/m2
00:39 11.5 °C 10.7 °C 1003.2 hPa NW 4.2 km/h 4.8 km/h 95% 0.0 mm 0 W/m2
00:44 11.5 °C 10.7 °C 1003.1 hPa NW 3.7 km/h 4.8 km/h 95% 0.0 mm 0 W/m2
00:49 11.5 °C 10.7 °C 1003.0 hPa NW 4.5 km/h 4.8 km/h 95% 0.0 mm 0 W/m2
00:54 11.5 °C 10.7 °C 1003.0 hPa NW 5.1 km/h 4.8 km/h 95% 0.0 mm 0 W/m2
00:59 11.5 °C 10.7 °C 1003.0 hPa NNW 5.4 km/h 4.8 km/h 95% 0.0 mm 0 W/m2
01:04 11.5 °C 10.7 °C 1003.0 hPa NW 5.1 km/h 6.4 km/h 95% 0.0 mm 0 W/m2
01:09 11.5 °C 10.7 °C 1002.9 hPa NW 5.2 km/h 4.8 km/h 95% 0.0 mm 0 W/m2
01:14 11.5 °C 10.7 °C 1002.8 hPa NW 5.9 km/h 5.1 km/h 95% 0.0 mm 0 W/m2
01:19 11.5 °C 10.7 °C 1002.7 hPa NW 5.6 km/h 6.4 km/h 95% 0.0 mm 0 W/m2
01:24 11.5 °C 10.7 °C 1002.6 hPa NW 5.8 km/h 6.4 km/h 95% 0.0 mm 0 W/m2
01:29 11.5 °C 10.7 °C 1002.6 hPa NW 5.1 km/h 6.4 km/h 95% 0.0 mm 0 W/m2
01:34 11.5 °C 10.7 °C 1002.5 hPa NW 5.4 km/h 6.4 km/h 95% 0.0 mm 0 W/m2
01:39 11.5 °C 10.7 °C 1002.5 hPa NW 4.3 km/h 6.4 km/h 95% 0.0 mm 0 W/m2
01:44 11.5 °C 10.7 °C 1002.5 hPa NNW 3.4 km/h 4.8 km/h 95% 0.0 mm 0 W/m2
01:49 11.4 °C 10.6 °C 1002.5 hPa NNW 4.6 km/h 3.7 km/h 95% 0.0 mm 0 W/m2
01:53 11.4 °C 10.6 °C 1002.4 hPa NNW 3.6 km/h 4.8 km/h 95% 0.0 mm 0 W/m2
01:59 11.3 °C 10.6 °C 1002.4 hPa NNW 3.4 km/h 3.2 km/h 95% 0.0 mm 0 W/m2
02:04 11.3 °C 10.6 °C 1002.3 hPa NNW 4.6 km/h 5.1 km/h 95% 0.0 mm 0 W/m2
02:09 11.3 °C 10.5 °C 1002.2 hPa NNW 6.4 km/h 6.4 km/h 95% 0.0 mm 0 W/m2
02:14 11.3 °C 10.5 °C 1002.1 hPa NNW 5.8 km/h 8 km/h 95% 0.0 mm 0 W/m2
02:19 11.3 °C 10.5 °C 1002.0 hPa NNW 6.8 km/h 6.4 km/h 95% 0.0 mm 0 W/m2
02:23 11.3 °C 10.5 °C 1001.9 hPa North 5 km/h 8 km/h 95% 0.0 mm 0 W/m2
02:29 11.2 °C 10.4 °C 1001.9 hPa North 4.2 km/h 4.8 km/h 95% 0.0 mm 0 W/m2
02:34 11.2 °C 10.4 °C 1001.9 hPa NE 3.9 km/h 4.8 km/h 95% 0.0 mm 0 W/m2
02:39 11.2 °C 10.4 °C 1001.9 hPa ENE 3.1 km/h 4.8 km/h 95% 0.0 mm 0 W/m2
02:44 11.2 °C 10.4 °C 1001.9 hPa NE 3.1 km/h 3.2 km/h 95% 0.0 mm 0 W/m2
02:49 11.2 °C 10.4 °C 1001.9 hPa NE 3.9 km/h 3.2 km/h 95% 0.0 mm 0 W/m2
02:54 11.1 °C 10.4 °C 1001.8 hPa NNE 3.6 km/h 4.8 km/h 95.2% 0.0 mm 0 W/m2
02:59 11.1 °C 10.5 °C 1001.7 hPa NNE 2.8 km/h 3.2 km/h 95.8% 0.0 mm 0 W/m2
03:04 11.1 °C 10.3 °C 1001.6 hPa NNE 3.4 km/h 3.2 km/h 95% 0.0 mm 0 W/m2
03:09 11.1 °C 10.3 °C 1001.5 hPa North 3.7 km/h 3.2 km/h 95% 0.0 mm 0 W/m2
03:14 11.1 °C 10.3 °C 1001.5 hPa North 3.5 km/h 4.8 km/h 95% 0.0 mm 0 W/m2
03:19 11.1 °C 10.3 °C 1001.3 hPa NNW 5.1 km/h 4.8 km/h 95% 0.0 mm 0 W/m2
03:24 11.1 °C 10.3 °C 1001.2 hPa NNW 5.5 km/h 4.8 km/h 95% 0.0 mm 0 W/m2
03:29 11.1 °C 10.3 °C 1001.1 hPa NNW 5.4 km/h 6.4 km/h 95% 0.0 mm 0 W/m2
03:34 11.1 °C 10.3 °C 1001.0 hPa NNW 6.4 km/h 6.4 km/h 95% 0.0 mm 0 W/m2
03:39 11 °C 10.2 °C 1001.0 hPa NNW 6.3 km/h 8 km/h 95% 0.0 mm 0 W/m2
03:44 11 °C 10.4 °C 1001.0 hPa NNW 6.2 km/h 8 km/h 95.8% 0.0 mm 0 W/m2
03:49 10.9 °C 10.3 °C 1000.9 hPa North 5.6 km/h 6.4 km/h 96% 0.0 mm 0 W/m2
03:54 10.9 °C 10.3 °C 1000.9 hPa North 6 km/h 6.4 km/h 96% 0.0 mm 0 W/m2
03:59 10.9 °C 10.3 °C 1000.8 hPa NNW 6 km/h 8 km/h 96% 0.0 mm 0 W/m2
04:04 10.9 °C 10.3 °C 1000.7 hPa NNE 5.1 km/h 6.4 km/h 96% 0.0 mm 0 W/m2
04:09 10.9 °C 10.3 °C 1000.7 hPa North 3.8 km/h 4.8 km/h 96% 0.0 mm 0 W/m2
04:14 10.9 °C 10.3 °C 1000.7 hPa North 5.4 km/h 5.1 km/h 96% 0.0 mm 0 W/m2
04:19 10.9 °C 10.3 °C 1000.7 hPa NNW 6.7 km/h 8 km/h 96% 0.0 mm 0 W/m2
04:24 10.8 °C 10.2 °C 1000.6 hPa NNW 6.3 km/h 8 km/h 96% 0.0 mm 0 W/m2
04:29 10.8 °C 10.2 °C 1000.6 hPa NNW 5.9 km/h 8 km/h 96% 0.0 mm 0 W/m2
04:34 10.8 °C 10.2 °C 1000.6 hPa NNW 6.5 km/h 6.4 km/h 96% 0.0 mm 0 W/m2
04:39 10.8 °C 10.2 °C 1000.6 hPa NNW 6 km/h 8 km/h 96% 0.0 mm 0 W/m2
04:44 10.8 °C 10.2 °C 1000.6 hPa North 5.1 km/h 6.4 km/h 96% 0.0 mm 0 W/m2
04:49 10.8 °C 10.2 °C 1000.6 hPa NNW 5.2 km/h 6.4 km/h 96% 0.0 mm 0 W/m2
04:54 10.8 °C 10.2 °C 1000.6 hPa North 5.3 km/h 4.8 km/h 96% 0.0 mm 0 W/m2
04:59 10.8 °C 10.2 °C 1000.6 hPa North 5.8 km/h 5.3 km/h 96% 0.0 mm 0 W/m2
05:04 10.8 °C 10.1 °C 1000.6 hPa NNE 6.2 km/h 8 km/h 96% 0.0 mm 0 W/m2
05:09 10.7 °C 10.1 °C 1000.6 hPa North 5.2 km/h 8 km/h 96% 0.0 mm 0 W/m2
05:14 10.7 °C 10.1 °C 1000.7 hPa North 5.4 km/h 4.8 km/h 96% 0.0 mm 0 W/m2
05:19 10.7 °C 10.1 °C 1000.6 hPa North 5.2 km/h 6.4 km/h 96% 0.0 mm 0 W/m2
05:24 10.7 °C 10.1 °C 1000.6 hPa North 5.5 km/h 4.8 km/h 96% 0.0 mm 0 W/m2
05:29 10.7 °C 10.1 °C 1000.6 hPa North 5.5 km/h 6.4 km/h 96% 0.0 mm 0 W/m2
05:34 10.7 °C 10.1 °C 1000.6 hPa NNE 5.4 km/h 6.4 km/h 96% 0.0 mm 0 W/m2
05:39 10.7 °C 10.1 °C 1000.6 hPa North 5.2 km/h 6.4 km/h 96% 0.0 mm 0 W/m2
05:44 10.7 °C 10.1 °C 1000.5 hPa NNE 5.4 km/h 6.4 km/h 96% 0.0 mm 0 W/m2
05:49 10.7 °C 10.1 °C 1000.5 hPa North 3.4 km/h 6.4 km/h 96% 0.0 mm 0 W/m2
05:54 10.7 °C 10.1 °C 1000.5 hPa North 4.3 km/h 4.8 km/h 96% 0.0 mm 0 W/m2
05:59 10.7 °C 10.1 °C 1000.5 hPa North 3.8 km/h 4.8 km/h 96% 0.0 mm 0 W/m2
06:04 10.7 °C 10.1 °C 1000.5 hPa NNE 3.9 km/h 4.8 km/h 96% 0.0 mm 0 W/m2
06:09 10.7 °C 10.1 °C 1000.5 hPa North 4.5 km/h 4.8 km/h 96% 0.0 mm 0 W/m2
06:14 10.7 °C 10.1 °C 1000.5 hPa North 4.9 km/h 4.8 km/h 96% 0.0 mm 0 W/m2
06:18 10.7 °C 10.1 °C 1000.5 hPa North 5.1 km/h 4.8 km/h 96% 0.0 mm 0 W/m2
06:24 10.7 °C 10.1 °C 1000.5 hPa NNE 5.7 km/h 4.8 km/h 96% 0.0 mm 0 W/m2
06:29 10.7 °C 10.1 °C 1000.5 hPa NNE 5.6 km/h 6.4 km/h 96% 0.0 mm 0 W/m2
06:34 10.7 °C 10.1 °C 1000.5 hPa North 5.5 km/h 6.4 km/h 96% 0.0 mm 0 W/m2
06:39 10.7 °C 10.1 °C 1000.5 hPa North 5.5 km/h 6.4 km/h 96% 0.0 mm 0 W/m2
06:44 10.7 °C 10.1 °C 1000.5 hPa North 7.3 km/h 7.4 km/h 96% 0.0 mm 0 W/m2
06:48 10.7 °C 10.1 °C 1000.5 hPa North 7.9 km/h 9.7 km/h 96% 0.0 mm 0 W/m2
06:54 10.7 °C 10.1 °C 1000.5 hPa North 9.3 km/h 11.3 km/h 96% 0.0 mm 0 W/m2
06:59 10.6 °C 10 °C 1000.5 hPa NNE 9.8 km/h 11.3 km/h 96% 0.0 mm 0 W/m2
07:04 10.6 °C 10 °C 1000.5 hPa North 6.2 km/h 11.3 km/h 96% 0.0 mm 0 W/m2
07:09 10.6 °C 10 °C 1000.5 hPa North 6.8 km/h 8 km/h 96% 0.0 mm 0 W/m2
07:14 10.6 °C 10 °C 1000.5 hPa North 6.2 km/h 8 km/h 96% 0.0 mm 0 W/m2
07:18 10.6 °C 10 °C 1000.5 hPa NNE 7.9 km/h 8 km/h 96% 0.0 mm 0 W/m2
07:24 10.6 °C 10 °C 1000.5 hPa NNE 7.6 km/h 9.7 km/h 96% 0.0 mm 5 W/m2
07:29 10.6 °C 10 °C 1000.5 hPa North 7 km/h 8 km/h 96% 0.0 mm 5 W/m2
07:34 10.6 °C 10 °C 1000.5 hPa North 7.1 km/h 9.7 km/h 96% 0.0 mm 7 W/m2
07:39 10.6 °C 10 °C 1000.5 hPa North 6.2 km/h 9.7 km/h 96% 0.0 mm 7 W/m2
07:44 10.6 °C 10 °C 1000.5 hPa NNE 6.1 km/h 6.4 km/h 96% 0.0 mm 9 W/m2
07:49 10.6 °C 10 °C 1000.5 hPa NNE 5.8 km/h 8 km/h 96% 0.0 mm 12 W/m2
07:54 10.6 °C 10 °C 1000.5 hPa NNE 6.3 km/h 6.4 km/h 96% 0.0 mm 18 W/m2
07:59 10.6 °C 10 °C 1000.5 hPa NNE 6.9 km/h 8 km/h 96% 0.0 mm 23 W/m2
08:04 10.6 °C 10 °C 1000.5 hPa North 6.4 km/h 8 km/h 96% 0.0 mm 28 W/m2
08:09 10.7 °C 10.1 °C 1000.5 hPa North 6.2 km/h 8 km/h 96% 0.0 mm 32 W/m2
08:14 10.7 °C 10.1 °C 1000.5 hPa NNE 6.2 km/h 8 km/h 96% 0.0 mm 28 W/m2
08:19 10.7 °C 10.1 °C 1000.5 hPa NNE 5.5 km/h 6.4 km/h 96% 0.0 mm 33 W/m2
08:24 10.7 °C 10.1 °C 1000.5 hPa NNE 4.8 km/h 6.4 km/h 96% 0.0 mm 33 W/m2
08:29 10.7 °C 10.1 °C 1000.5 hPa NNE 6 km/h 6.4 km/h 96% 0.0 mm 33 W/m2
08:34 10.7 °C 10.1 °C 1000.5 hPa NNE 5.3 km/h 8 km/h 96% 0.0 mm 32 W/m2
08:39 10.7 °C 10.1 °C 1000.5 hPa NE 6.4 km/h 6.4 km/h 96% 0.0 mm 32 W/m2
08:44 10.7 °C 10.1 °C 1000.5 hPa NE 6.5 km/h 8 km/h 96% 0.0 mm 40 W/m2
08:49 10.7 °C 10.1 °C 1000.4 hPa NE 5.8 km/h 8 km/h 96% 0.0 mm 42 W/m2
08:54 10.7 °C 10.1 °C 1000.4 hPa NE 5.4 km/h 9.7 km/h 96% 0.0 mm 37 W/m2
08:59 10.8 °C 10.1 °C 1000.5 hPa NE 7.3 km/h 9.7 km/h 96% 0.0 mm 35 W/m2
09:04 10.8 °C 10.2 °C 1000.5 hPa NE 6.6 km/h 8 km/h 96% 0.0 mm 33 W/m2
09:09 10.8 °C 10.2 °C 1000.5 hPa NE 5.3 km/h 8 km/h 96% 0.0 mm 40 W/m2
09:14 10.8 °C 10.2 °C 1000.5 hPa NE 5.8 km/h 6.4 km/h 96% 0.0 mm 49 W/m2
09:19 10.8 °C 10.2 °C 1000.5 hPa NE 7.5 km/h 6.4 km/h 96% 0.0 mm 54 W/m2
09:24 10.8 °C 10.2 °C 1000.5 hPa NNE 5.6 km/h 11.3 km/h 96% 0.0 mm 63 W/m2
09:29 10.8 °C 10.2 °C 1000.5 hPa NE 6.3 km/h 8 km/h 96% 0.0 mm 63 W/m2
09:34 10.8 °C 10.2 °C 1000.6 hPa NE 6.4 km/h 11.3 km/h 96% 0.0 mm 62 W/m2
09:38 10.8 °C 10.2 °C 1000.6 hPa NE 5 km/h 6.4 km/h 96% 0.0 mm 79 W/m2
09:44 10.8 °C 10.2 °C 1000.6 hPa NE 5.1 km/h 5 km/h 96% 0.0 mm 83 W/m2
09:49 10.9 °C 10.3 °C 1000.6 hPa ENE 4.1 km/h 6.4 km/h 96% 0.0 mm 76 W/m2
09:54 11 °C 10.4 °C 1000.6 hPa East 5.8 km/h 4.8 km/h 96% 0.0 mm 65 W/m2
09:59 11 °C 10.4 °C 1000.6 hPa ENE 8.4 km/h 8 km/h 96% 0.0 mm 70 W/m2
10:04 11 °C 10.4 °C 1000.6 hPa ENE 9 km/h 11.3 km/h 96% 0.0 mm 60 W/m2
10:08 11 °C 10.4 °C 1000.6 hPa ENE 9 km/h 11.3 km/h 96% 0.0 mm 65 W/m2
10:14 11 °C 10.4 °C 1000.6 hPa East 10.7 km/h 11.3 km/h 96% 0.0 mm 81 W/m2
10:19 11 °C 10.4 °C 1000.7 hPa ENE 9.6 km/h 14.5 km/h 96% 0.0 mm 81 W/m2
10:24 11.1 °C 10.5 °C 1000.7 hPa ENE 7.2 km/h 11.3 km/h 96% 0.0 mm 65 W/m2
10:28 11.1 °C 10.5 °C 1000.7 hPa ENE 8.7 km/h 9.7 km/h 96% 0.0 mm 40 W/m2
10:34 11.1 °C 10.5 °C 1000.8 hPa ENE 7.6 km/h 11.3 km/h 96% 0.0 mm 76 W/m2
10:39 11.2 °C 10.5 °C 1000.8 hPa ENE 8 km/h 11.3 km/h 96% 0.0 mm 88 W/m2
10:44 11.1 °C 10.5 °C 1000.8 hPa ENE 10.4 km/h 11.3 km/h 96% 0.0 mm 70 W/m2
10:49 11.2 °C 10.6 °C 1000.8 hPa ENE 7.6 km/h 12.9 km/h 96% 0.0 mm 44 W/m2
10:54 11.2 °C 10.6 °C 1000.8 hPa ENE 9.7 km/h 9.7 km/h 96% 0.0 mm 46 W/m2
10:59 11.1 °C 10.5 °C 1000.8 hPa ENE 10.7 km/h 12.9 km/h 96% 0.0 mm 25 W/m2
11:04 11 °C 10.4 °C 1000.8 hPa ENE 10.8 km/h 16.1 km/h 96% 0.0 mm 32 W/m2
11:09 10.9 °C 10.3 °C 1000.9 hPa East 14 km/h 16.1 km/h 96% 0.0 mm 32 W/m2
11:14 10.9 °C 10.3 °C 1000.9 hPa ENE 11.9 km/h 14.5 km/h 96% 0.0 mm 74 W/m2
11:19 10.9 °C 10.3 °C 1000.9 hPa ENE 11 km/h 14.5 km/h 96% 0.0 mm 74 W/m2
11:24 11 °C 10.4 °C 1000.9 hPa East 9.7 km/h 12.9 km/h 96% 0.0 mm 51 W/m2
11:29 11 °C 10.4 °C 1000.9 hPa ENE 11.8 km/h 12.9 km/h 96.2% 0.0 mm 42 W/m2
11:34 11 °C 10.4 °C 1000.9 hPa East 10.7 km/h 14.5 km/h 96.2% 0.0 mm 42 W/m2
11:39 11 °C 10.4 °C 1000.9 hPa ENE 8.6 km/h 12.9 km/h 96% 0.0 mm 58 W/m2
11:44 11 °C 10.5 °C 1000.9 hPa East 8.2 km/h 12.9 km/h 96.9% 0.0 mm 86 W/m2
11:49 11 °C 10.6 °C 1000.9 hPa ENE 7.3 km/h 11.3 km/h 97% 0.0 mm 74 W/m2
11:54 11.1 °C 10.6 °C 1000.9 hPa ENE 6.4 km/h 8 km/h 97% 0.0 mm 49 W/m2
11:59 11.1 °C 10.6 °C 1000.9 hPa ENE 7.5 km/h 8 km/h 97% 0.0 mm 28 W/m2
12:04 11.1 °C 10.6 °C 1000.9 hPa ENE 6.5 km/h 9.7 km/h 97% 0.0 mm 37 W/m2
12:09 11.1 °C 10.6 °C 1000.8 hPa ENE 6.6 km/h 8 km/h 97% 0.0 mm 53 W/m2
12:14 11.1 °C 10.7 °C 1000.8 hPa ENE 6.2 km/h 8 km/h 97% 0.0 mm 56 W/m2
12:19 11.1 °C 10.7 °C 1000.8 hPa NE 5.4 km/h 8 km/h 97% 0.0 mm 49 W/m2
12:24 11.1 °C 10.7 °C 1000.8 hPa NE 4.9 km/h 6.4 km/h 97% 0.0 mm 53 W/m2
12:29 11.2 °C 10.7 °C 1000.7 hPa NE 5.3 km/h 6.4 km/h 97% 0.0 mm 69 W/m2
12:34 11.2 °C 10.7 °C 1000.7 hPa NE 4.8 km/h 6.4 km/h 97% 0.0 mm 65 W/m2
12:39 11.2 °C 10.7 °C 1000.7 hPa NE 6.7 km/h 6.4 km/h 97% 0.0 mm 76 W/m2
12:44 11.2 °C 10.7 °C 1000.7 hPa NE 6 km/h 8 km/h 97% 0.0 mm 76 W/m2
12:49 11.2 °C 10.8 °C 1000.5 hPa ENE 7.9 km/h 8 km/h 97% 0.0 mm 70 W/m2
12:54 11.2 °C 10.8 °C 1000.5 hPa NE 8.5 km/h 11.3 km/h 97% 0.0 mm 76 W/m2
12:59 11.2 °C 10.7 °C 1000.4 hPa NNE 5.9 km/h 11.3 km/h 97% 0.0 mm 76 W/m2
13:04 11.2 °C 10.8 °C 1000.4 hPa NNE 6.2 km/h 6.4 km/h 97% 0.0 mm 54 W/m2
13:09 11.2 °C 10.7 °C 1000.4 hPa NE 6.9 km/h 9.7 km/h 97% 0.0 mm 54 W/m2
13:14 11.2 °C 10.7 °C 1000.4 hPa NE 6.6 km/h 8 km/h 97% 0.0 mm 40 W/m2
13:19 11.1 °C 10.7 °C 1000.3 hPa NE 7.7 km/h 8 km/h 97% 0.0 mm 42 W/m2
13:24 11.1 °C 10.7 °C 1000.4 hPa NE 8.5 km/h 9.7 km/h 97% 0.0 mm 44 W/m2
13:29 11.1 °C 10.7 °C 1000.4 hPa ENE 7.8 km/h 11.3 km/h 97% 0.0 mm 42 W/m2
13:34 11.1 °C 10.7 °C 1000.3 hPa ENE 6.1 km/h 11.3 km/h 97% 0.0 mm 40 W/m2
13:39 11.2 °C 10.7 °C 1000.3 hPa ENE 5.9 km/h 8 km/h 97% 0.0 mm 46 W/m2
13:44 11.1 °C 10.7 °C 1000.3 hPa ENE 8 km/h 6.6 km/h 97% 0.0 mm 33 W/m2
13:49 11.1 °C 10.7 °C 1000.3 hPa NE 6.7 km/h 11.3 km/h 97% 0.2 mm 33 W/m2
13:54 11.1 °C 10.7 °C 1000.2 hPa NE 5.9 km/h 8 km/h 97% 0.2 mm 26 W/m2
13:59 11.1 °C 10.6 °C 1000.2 hPa NE 7.2 km/h 6.4 km/h 97% 0.2 mm 26 W/m2
14:04 11.1 °C 10.6 °C 1000.2 hPa NE 7.1 km/h 11.3 km/h 97% 0.2 mm 30 W/m2
14:09 11 °C 10.6 °C 1000.2 hPa NE 7.7 km/h 8 km/h 97% 0.2 mm 30 W/m2
14:14 11 °C 10.6 °C 1000.2 hPa NE 7.4 km/h 9.7 km/h 97% 0.2 mm 39 W/m2
14:19 11 °C 10.6 °C 1000.2 hPa NE 7.6 km/h 9.7 km/h 97% 0.2 mm 39 W/m2
14:24 11 °C 10.6 °C 1000.2 hPa NE 6.5 km/h 9.7 km/h 97% 0.2 mm 39 W/m2
Lodi Weather
Compliments of Weather Underground - 2 mb